Lid_Strength_Index
16 18 19 15 15 16 17 18 19 18 16 17 18 18 15 15 17 17 15 14 14 14 12 13 11 11 11 10 11 10 11 11 11 12 13 13 12 11 11 10 9 9 9 9
18 20 16 16 15 16 16 18 19 17 16 18 18 18 15 14 14 14 13 13 13 13 14 13 13 12 11 11 11 11 10 11 11 11 12 12 12 12 11 10 10 9 9 10
18 17 15 15 17 17 17 18 18 17 16 18 18 19 17 14 14 14 13 12 13 13 13 14 13 12 11 11 11 10 10 11 11 11 11 12 12 12 12 11 10 10 10 10
18 17 16 17 17 16 19 16 16 16 18 21 19 23 19 15 14 14 13 14 13 13 13 13 13 13 12 11 11 10 10 10 10 10 11 12 13 13 12 11 11 10 10 10
19 18 18 18 17 16 18 16 17 17 19 20 21 22 21 17 15 14 14 14 14 14 14 14 13 12 12 12 12 11 11 11 11 11 11 12 13 13 12 11 11 11 11 10
19 18 18 18 17 17 16 17 17 18 19 24 20 20 22 17 15 14 14 14 14 14 14 15 14 12 12 12 12 12 12 11 11 11 12 12 13 12 12 12 12 12 12 12
20 20 20 18 20 18 17 19 22 24 25 23 20 20 19 15 14 13 14 13 14 15 15 15 15 14 14 13 13 12 12 12 12 12 12 12 12 12 12 12 12 13 13 13
22 22 19 18 20 20 20 19 21 25 23 20 20 21 17 13 13 13 13 13 14 15 15 15 15 14 13 13 13 12 12 12 12 12 12 12 11 11 12 12 12 13 13 13
23 20 19 18 18 19 20 22 19 21 24 23 20 19 15 14 14 14 14 15 14 14 14 15 15 15 14 13 12 12 12 12 12 12 12 12 11 11 12 12 12 13 13 12
18 21 19 19 18 18 19 18 22 23 28 28 22 21 19 16 15 15 15 15 15 15 15 15 15 14 13 12 12 12 12 12 12 12 12 11 11 11 12 12 13 13 13 13
20 19 21 20 21 20 20 21 21 21 21 24 24 21 17 17 15 15 15 15 15 15 14 14 14 14 13 13 12 12 13 13 12 11 11 12 11 12 12 12 13 13 13 13
16 18 23 22 20 19 20 19 19 22 23 21 20 20 15 16 16 15 15 14 14 15 15 15 14 14 14 13 13 12 12 12 11 11 11 12 12 12 12 13 13 13 13 13
15 18 24 23 22 21 23 20 19 19 19 22 22 20 15 15 14 15 14 14 13 14 14 14 14 14 14 14 13 13 12 11 12 12 12 12 12 12 13 13 13 13 13 13
12 16 17 20 21 22 25 24 19 20 24 19 18 18 17 17 15 15 14 14 13 13 13 13 14 14 13 13 13 12 12 11 12 12 12 12 12 12 13 13 13 13 14 14
14 18 16 15 17 20 20 23 21 20 18 20 17 18 16 15 14 14 14 14 13 13 13 13 13 12 13 14 14 13 12 12 12 12 12 12 12 13 13 14 14 14 14 14
13 15 17 17 15 16 17 16 21 19 18 18 17 18 16 15 15 15 14 14 13 13 13 12 12 13 13 12 12 13 13 13 13 12 12 13 13 13 13 14 14 14 14 14
15 15 18 17 15 15 19 17 17 17 18 17 19 17 15 15 14 13 13 13 13 13 12 12 12 12 11 12 12 13 13 14 13 13 13 13 13 14 14 14 14 15 15 15
14 15 15 17 18 21 16 14 14 15 14 15 14 13 13 13 12 12 12 13 12 11 11 12 12 12 12 12 13 13 14 14 14 14 14 14 14 14 15 15 15 16 16 16
10 12 15 17 18 16 14 14 17 16 16 18 17 17 16 16 15 15 15 14 14 13 12 12 12 12 12 13 13 14 15 15 14 14 14 14 14 14 15 15 15 18 17 15
10 10 14 15 19 20 14 13 14 13 15 18 18 19 19 17 18 17 16 16 15 14 14 14 13 13 14 13 15 15 15 15 14 14 14 14 14 14 15 15 16 17 19 15
15 14 16 16 17 15 15 15 15 17 18 16 17 17 18 20 19 17 17 17 16 16 16 15 15 14 13 14 15 15 15 15 13 14 14 15 14 14 14 15 17 16 16 15
16 16 16 15 17 19 13 15 16 16 14 16 17 17 17 17 17 17 17 17 17 18 18 17 17 15 14 15 14 15 15 15 16 16 15 15 15 14 15 15 16 16 15 15
15 16 16 17 17 14 13 14 13 14 14 16 17 17 17 17 17 17 18 17 18 18 17 18 18 17 16 15 15 15 15 16 17 17 17 16 16 15 15 15 16 15 15 15
12 11 15 15 12 13 14 15 15 15 16 16 17 18 18 19 18 17 18 17 18 18 19 18 17 18 18 17 16 15 15 16 16 17 18 17 16 15 15 15 15 15 15 15
13 13 14 14 12 14 16 17 17 17 17 18 18 19 19 19 18 18 19 19 19 18 19 19 19 19 19 18 16 15 14 17 17 17 17 16 15 15 15 15 14 14 14 14
13 16 15 16 16 15 16 17 18 19 20 20 21 20 19 19 19 19 20 21 21 21 21 20 20 21 21 19 18 16 14 15 17 16 17 15 15 15 14 15 15 12 13 13